Simultaneous Nadir Overpasses (SNOs) Predictions

Prediction of SNOs between METOP-A and TERRA Satellite Orbit:

Table of predicted SNOs for the next 14.0 days since TLE Epoch: 7/6/2018
Index Date (METOP-A) Time (METOP-A) Lat,Lon (METOP-A) SZA (METOP-A ) Date (TERRA) Time (TERRA) Lat,Lon (TERRA) SZA (TERRA ) Distance(km) Time Diff (sec)
1 07/07/2018 11:50:19 -81.42,-128.23 118.15 07/07/2018 11:51:13 -81.42,-128.15 118.11 1.38 54
2 07/07/2018 12:40:59 81.42, 39.52 61.91 07/07/2018 12:40:39 81.43, 39.55 61.91 1.00 20
3 07/10/2018 07:24:36 -81.42, -61.81 117.83 07/10/2018 07:25:29 -81.41, -61.98 117.83 2.91 53
4 07/10/2018 08:15:17 81.42, 105.50 62.17 07/10/2018 08:14:55 81.41, 105.70 62.18 3.33 22
5 07/13/2018 02:58:53 -81.42, 4.60 117.47 07/13/2018 02:59:44 -81.42, 4.54 117.45 0.97 51
6 07/13/2018 03:49:33 81.42, 172.27 62.58 07/13/2018 03:49:10 81.42, 172.21 62.56 1.07 23
7 07/15/2018 22:33:09 -81.42, 71.00 117.05 07/15/2018 22:33:58 -81.42, 71.03 117.03 0.43 49
8 07/15/2018 23:23:49 81.42,-121.37 62.99 07/15/2018 23:23:24 81.42,-121.33 62.98 0.78 25
9 07/18/2018 18:07:26 -81.42, 137.40 116.59 07/18/2018 18:08:13 -81.42, 137.47 116.56 1.28 47




NCC Satellite Simultaneous Nadir Overpasses (SNOs) Prediction Service
